Hourly Data Report for September 02, 2015

IQALUIT CLIMATE
NUNAVUT

63°44'50.000" N
68°32'40.000" W
33.50 m
2402592
71321
XFB

Download Data

Hourly Data (September 2015)
Hourly Data Report for September 2, 2015
TIME
LST
Temp Definition
°C
Dew Point Definition
°C
Rel Hum Definition
%
Precip. Amount Definition
mm

Wind Dir Definition
10's deg

Wind Spd Definition
km/h
Visibility Definition
km
Stn Press Definition
kPa
Hmdx Definition


Wind Chill Definition


Weather Definition


00:00 2.4 0.8 90 0.0 21 5   101.27     LegendNANA
01:00 0.8 -0.1 94 0.0 36 3   101.29     LegendNANA
02:00 -0.1 -0.8 95 0.0 36 4   101.30   -1 LegendNANA
03:00 1.4 0.3 93 0.0 0 1   101.31     LegendNANA
04:00 1.5 0.5 93 0.0 33 3   101.32     LegendNANA
05:00 1.9 0.7 92 0.0 32 6   101.35     LegendNANA
06:00 3.1 1.4 89 0.0 32 5   101.36     LegendNANA
07:00 4.0 1.8 85 0.0 31 7   101.36     LegendNANA
08:00 6.2 2.7 79 0.0 30 9   101.36     LegendNANA
09:00 6.3 1.5 71 0.0 26 10   101.34     LegendNANA
10:00 7.7 2.4 69 0.0 27 11   101.32     LegendNANA
11:00 7.4 1.9 68 0.0 25 16   101.30     LegendNANA
12:00 8.2 1.7 64 0.0 25 16   101.28     LegendNANA
13:00 8.8 2.5 64 0.0 25 13   101.30     LegendNANA
14:00 6.9 2.1 71 0.0 15 9   101.29     LegendNANA
15:00 5.4 1.9 78 0.0 16 12   101.32     LegendNANA
16:00 5.6 2.1 79 0.0 16 11   101.37     LegendNANA
17:00 5.5 2.1 78 0.0 16 5   101.40     LegendNANA
18:00 4.7 -0.4 69 0.0 15 7   101.41     LegendNANA
19:00 4.6 0.5 75 0.0 15 5   101.46     LegendNANA
20:00 4.7 0.1 72 0.0 13 8   101.47     LegendNANA
21:00 3.8 -0.3 75 0.0 14 7   101.49     LegendNANA
22:00 3.0 -0.4 78 0.0 24 6   101.51     LegendNANA
23:00 1.9 -0.5 84 0.0 31 7   101.51     LegendNANA

Notes on Data Quality.

Legend

  • E = Estimated
  • M = Missing
  • NA = Not Available*
  • [empty] = Indicates an unobserved value
Date modified: